Location: Ahstedt
(52.2048°N, 10.1060°E)
Time: 22:01:20
(UTC+00:00)

Cosmos 2082 Rocket - Pass Details

Date: 14 April 2026
Orbit: 831 x 853 km, 71.0° (Epoch: 19 May)

Event Time Altitude Azimuth Distance (km) Brightness Sun altitude
Exits shadow 01:14:52 23° 143° (SE) 1,738 3.6 -23.7°
Maximum altitude 01:17:07 30° 105° (ESE) 1,475 3.6 -23.5°
Drops below altitude 10° 01:22:02 10° 46° (NE) 2,493 5.7 -23.1°
Sets 01:24:45 0° 37° (NE) 3,434 6.9 -22.9°
